1486702800.97,55793,10.13,73802.3,-7.97,-8.75,-8.67,0,*57
1486702802.19,55794,10.13,73806.8,-7.99,-8.71,-8.67,0,*5A
1486702803.42,55795,10.13,73808.0,-7.99,-8.71,-8.71,0,*5C
1486702804.65,55796,10.13,73806.3,-7.99,-8.71,-8.71,0,*5F
1486702805.87,55797,10.13,73804.5,-7.99,-8.67,-8.59,0,*53
1486702807.1,55798,10.13,73800.0,-7.99,-8.67,-8.71,0,*56
1486702808.29,55799,10.13,73810.5,-7.97,-8.63,-8.63,0,*5E
1486702809.48,55800,10.13,73806.3,-7.97,-8.75,-8.63,0,*56
1486702810.67,55801,10.13,73806.5,-7.97,-8.67,-8.67,0,*50
1486702811.87,55802,10.13,73802.3,-7.97,-8.67,-8.63,0,*57
1486702813.05,55803,10.13,73806.0,-7.97,-8.67,-8.55,0,*53
1486702814.25,55804,10.13,73804.3,-7.97,-8.75,-8.55,0,*57
1486702815.46,55805,10.13,73800.8,-7.95,-8.75,-8.63,0,*51
1486702816.68,55806,10.13,73802.0,-7.95,-8.71,-8.63,0,*56
1486702817.9,55807,10.13,73794.8,-7.97,-8.81,-8.67,0,*5E
1486702819.09,55808,10.13,73792.5,-7.97,-8.75,-8.67,0,*5A
1486702820.3,55809,10.13,73798.8,-7.97,-8.81,-8.67,0,*50
1486702821.51,55810,10.13,73800.0,-7.97,-8.81,-8.67,0,*58
1486702822.73,55811,10.13,73796.3,-7.97,-8.81,-8.75,0,*5A
1486702823.94,55812,10.13,73798.8,-7.97,-8.81,-8.75,0,*59
1486702825.17,55813,10.13,73796.0,-7.97,-8.85,-8.81,0,*57
1486702826.39,55814,10.13,73804.8,-7.97,-8.85,-8.81,0,*50
1486702827.61,55815,10.13,73798.5,-7.97,-8.93,-8.81,0,*56
1486702828.82,55816,10.13,73802.0,-7.97,-8.85,-8.75,0,*59
1486702830.04,55817,10.13,73804.3,-7.97,-8.93,-8.81,0,*54
1486702831.26,55818,10.13,73802.0,-7.97,-8.85,-8.81,0,*5C
1486702832.46,55819,10.13,73802.8,-7.97,-8.85,-8.75,0,*56
1486702833.7,55820,10.13,73806.8,-7.95,-8.81,-8.71,0,*5E
1486702834.93,55821,10.13,73806.8,-7.97,-8.85,-8.81,0,*56
1486702836.15,55822,10.13,73800.8,-7.95,-8.89,-8.75,0,*50
1486702837.36,55823,10.13,73798.3,-7.97,-8.93,-8.85,0,*57
1486702838.57,55824,10.13,73798.5,-7.97,-8.85,-8.85,0,*57
1486702839.77,55825,10.13,73798.5,-7.97,-8.85,-8.85,0,*56
1486702841.02,55826,10.13,73798.3,-7.95,-8.89,-8.81,0,*5F
1486702842.22,55827,10.13,73804.0,-7.97,-8.97,-8.93,0,*50
1486702843.42,55828,10.13,73800.5,-7.97,-8.97,-8.93,0,*5F
1486702844.66,55829,10.13,73794.8,-7.95,-8.89,-8.81,0,*50
1486702845.87,55830,10.13,73800.3,-7.97,-8.85,-8.85,0,*52
1486702847.08,55831,10.13,73802.8,-7.97,-8.85,-8.85,0,*53
1486702848.33,55832,10.13,73806.3,-7.95,-8.89,-8.81,0,*5A
1486702849.54,55833,10.13,73804.5,-7.97,-8.85,-8.85,0,*51
1486702850.8,55834,10.13,73810.8,-7.95,-8.81,-8.81,0,*54
1486702852.02,55835,10.13,73804.8,-7.95,-8.89,-8.71,0,*52
1486702853.26,55836,10.13,73804.3,-7.95,-8.81,-8.75,0,*5D
1486702854.5,55837,10.13,73794.5,-7.95,-8.81,-8.71,0,*58
1486702855.72,55838,10.13,73792.3,-7.97,-8.93,-8.81,0,*59
1486702856.95,55839,10.13,73796.5,-7.97,-8.85,-8.81,0,*5F
1486702858.17,55840,10.13,73796.0,-7.97,-8.85,-8.81,0,*51
1486702859.4,55841,10.13,73800.0,-7.97,-8.93,-8.81,0,*57
1486702860.64,55842,10.13,73806.5,-7.95,-8.81,-8.75,0,*5E
1486702861.87,55843,10.13,73802.0,-7.95,-8.81,-8.71,0,*5B
1486702863.11,55844,10.13,73804.3,-7.95,-8.81,-8.71,0,*5C
1486702864.35,55845,10.13,73804.5,-7.95,-8.81,-8.75,0,*59
1486702865.59,55846,10.13,73808.5,-7.97,-8.81,-8.81,0,*53
1486702866.81,55847,10.13,73806.0,-7.95,-8.75,-8.71,0,*54
1486702868.03,55848,10.13,73812.3,-7.95,-8.75,-8.71,0,*5B
1486702869.25,55849,10.13,73810.5,-7.95,-8.71,-8.71,0,*5E
1486702870.47,55850,10.13,73814.8,-7.95,-8.75,-8.63,0,*51
1486702871.68,55851,10.13,73808.8,-7.95,-8.75,-8.63,0,*50
1486702872.91,55852,10.13,73810.0,-7.95,-8.71,-8.71,0,*54
1486702874.12,55853,10.13,73810.5,-7.95,-8.75,-8.71,0,*51
1486702875.35,55854,10.13,73812.3,-7.95,-8.71,-8.75,0,*56
1486702876.56,55855,10.13,73810.5,-7.95,-8.75,-8.71,0,*57
1486702877.76,55856,10.13,73804.5,-7.93,-8.71,-8.71,0,*56
1486702878.98,55857,10.13,73806.0,-7.95,-8.75,-8.75,0,*51
1486702880.19,55858,10.13,73806.5,-7.95,-8.75,-8.71,0,*5A
1486702881.38,55859,10.13,73806.8,-7.93,-8.75,-8.71,0,*5D
1486702882.58,55860,10.13,73806.0,-7.93,-8.71,-8.71,0,*53
1486702883.8,55861,10.13,73812.0,-7.95,-8.71,-8.63,0,*57
1486702885.0,55862,10.13,73814.0,-7.93,-8.71,-8.63,0,*52
1486702886.19,55863,10.13,73814.5,-7.93,-8.71,-8.71,0,*50
1486702887.38,55864,10.13,73810.8,-7.93,-8.75,-8.63,0,*50
1486702888.57,55865,10.13,73806.0,-7.93,-8.75,-8.71,0,*52
1486702889.76,55866,10.13,73802.3,-7.93,-8.75,-8.75,0,*55
1486702890.96,55867,10.13,73806.0,-7.93,-8.93,-8.75,0,*5C
1486702892.16,55868,10.13,73806.8,-7.93,-8.89,-8.89,0,*5B
1486702893.38,55869,10.13,73808.0,-7.93,-8.89,-8.81,0,*52
1486702894.61,55870,10.13,73808.0,-7.95,-8.89,-8.89,0,*54
1486702895.85,55871,10.13,73814.5,-7.93,-8.81,-8.81,0,*53
1486702897.06,55872,10.13,73810.5,-7.93,-8.81,-8.75,0,*5B
1486702898.3,55873,10.13,73804.0,-7.95,-8.81,-8.75,0,*5C
1486702899.54,55874,10.13,73806.5,-7.95,-8.81,-8.75,0,*5B
1486702900.75,55875,10.13,73802.3,-7.91,-8.75,-8.67,0,*56
1486702901.97,55876,10.13,73802.5,-7.93,-8.81,-8.75,0,*5F
1486702903.2,55877,10.13,73800.5,-7.95,-8.81,-8.71,0,*5C
1486702904.39,55878,10.13,73802.5,-7.93,-8.75,-8.67,0,*59
1486702905.6,55879,10.13,73798.8,-7.93,-8.81,-8.75,0,*50
1486702906.79,55880,10.13,73798.0,-7.93,-8.75,-8.71,0,*59
1486702907.99,55881,10.13,73798.8,-7.93,-8.89,-8.71,0,*5B
1486702909.2,55882,10.13,73800.5,-7.93,-8.81,-8.71,0,*50
1486702910.42,55883,10.13,73796.8,-7.93,-8.81,-8.71,0,*51
1486702911.63,55884,10.13,73798.3,-7.93,-8.81,-8.71,0,*56
1486702912.84,55885,10.13,73794.5,-7.93,-8.81,-8.71,0,*57
1486702914.06,55886,10.13,73794.3,-7.91,-8.75,-8.67,0,*5A
1486702915.27,55887,10.13,73788.3,-7.93,-8.81,-8.75,0,*51
1486702916.48,55888,10.13,73788.8,-7.93,-8.81,-8.75,0,*5E
1486702917.69,55889,10.13,73798.5,-7.93,-8.81,-8.71,0,*5B
1486702918.88,55890,10.13,73794.8,-7.93,-8.75,-8.75,0,*5C
1486702920.07,55891,10.13,73798.0,-7.93,-8.75,-8.75,0,*5D
1486702921.26,55892,10.13,73804.0,-7.93,-8.75,-8.75,0,*5E
1486702922.45,55893,10.13,73810.5,-7.93,-8.75,-8.71,0,*5B
1486702923.64,55894,10.13,73810.0,-7.93,-8.75,-8.71,0,*5C
1486702924.84,55895,10.13,73804.0,-7.93,-8.71,-8.63,0,*5A
1486702926.03,55896,10.13,73802.0,-7.93,-8.75,-8.63,0,*5D
1486702927.25,55897,10.13,73802.0,-7.91,-8.71,-8.59,0,*53
1486702928.45,55898,10.13,73798.0,-7.93,-8.71,-8.63,0,*57
1486702929.64,55899,10.13,73792.0,-7.93,-8.71,-8.59,0,*5F
1486702930.83,55900,10.13,73788.5,-7.93,-8.75,-8.71,0,*50
1486702932.02,55901,10.13,73784.8,-7.93,-8.75,-8.75,0,*55
1486702933.25,55902,10.13,73786.0,-7.91,-8.71,-8.71,0,*54
1486702934.48,55903,10.13,73786.5,-7.91,-8.71,-8.71,0,*55
1486702935.7,55904,10.13,73780.0,-7.91,-8.71,-8.71,0,*52
1486702936.89,55905,10.13,73788.8,-7.93,-8.75,-8.75,0,*51
1486702938.11,55906,10.13,73788.3,-7.91,-8.67,-8.67,0,*50
1486702939.3,55907,10.13,73778.8,-7.93,-8.75,-8.71,0,*57
1486702940.51,55908,10.13,73788.0,-7.91,-8.67,-8.67,0,*5E
1486702941.71,55909,10.13,73790.3,-7.93,-8.71,-8.71,0,*5D
1486702942.9,55910,10.13,73790.5,-7.93,-8.75,-8.71,0,*51
1486702944.11,55911,10.13,73792.0,-7.91,-8.67,-8.67,0,*56
1486702945.3,55912,10.13,73796.8,-7.93,-8.75,-8.71,0,*53
1486702946.52,55913,10.13,73798.5,-7.91,-8.59,-8.55,0,*58
1486702947.71,55914,10.13,73808.0,-7.93,-8.63,-8.63,0,*51
1486702948.94,55915,10.13,73806.3,-7.91,-8.71,-8.59,0,*58
1486702950.13,55916,10.13,73808.8,-7.93,-8.71,-8.63,0,*50
1486702951.35,55917,10.13,73802.0,-7.91,-8.67,-8.55,0,*51
1486702952.57,55918,10.13,73800.0,-7.91,-8.59,-8.55,0,*53
1486702953.79,55919,10.13,73796.3,-7.91,-8.55,-8.59,0,*52
1486702955.0,55920,10.13,73800.3,-7.91,-8.59,-8.59,0,*54
1486702956.22,55921,10.13,73810.8,-7.91,-8.59,-8.55,0,*59
1486702957.41,55922,10.13,73806.8,-7.93,-8.63,-8.59,0,*5D
1486702958.63,55923,10.13,73808.5,-7.91,-8.55,-8.55,0,*57
1486702959.86,55924,10.13,73810.0,-7.91,-8.55,-8.45,0,*51
1486702961.09,55925,10.13,73812.3,-7.91,-8.55,-8.45,0,*50
1486702962.28,55926,10.13,73812.3,-7.93,-8.59,-8.55,0,*5C
1486702963.49,55927,10.13,73812.3,-7.91,-8.59,-8.55,0,*5F
1486702964.71,55928,10.13,73810.5,-7.91,-8.59,-8.55,0,*50
1486702965.93,55929,10.13,73810.8,-7.91,-8.55,-8.55,0,*5D
1486702967.13,55930,10.13,73812.0,-7.89,-8.45,-8.45,0,*5C
1486702968.32,55931,10.13,73806.3,-7.89,-8.59,-8.55,0,*51
1486702969.55,55932,10.13,73804.5,-7.85,-8.55,-8.41,0,*57
1486702970.76,55933,10.13,73804.0,-7.91,-8.59,-8.55,0,*5A
1486702971.95,55934,10.13,73804.5,-7.89,-8.59,-8.59,0,*58
1486702973.14,55935,10.13,73804.3,-7.89,-8.59,-8.55,0,*55
1486702974.33,55936,10.13,73814.3,-7.89,-8.59,-8.55,0,*56
1486702975.53,55937,10.13,73814.0,-7.89,-8.55,-8.55,0,*5B
1486702976.72,55938,10.13,73814.3,-7.89,-8.55,-8.59,0,*58
1486702977.91,55939,10.13,73814.8,-7.89,-8.59,-8.59,0,*55
1486702979.1,55940,10.13,73808.3,-7.89,-8.67,-8.55,0,*5A
1486702980.32,55941,10.13,73808.0,-7.89,-8.67,-8.51,0,*5F
1486702981.51,55942,10.13,73810.8,-7.89,-8.59,-8.59,0,*59
1486702982.7,55943,10.13,73812.8,-7.89,-8.67,-8.55,0,*59
1486702983.9,55944,10.13,73814.3,-7.89,-8.59,-8.59,0,*5F
1486702985.09,55945,10.13,73814.0,-7.89,-8.59,-8.59,0,*5E
1486702986.28,55946,10.13,73808.8,-7.89,-8.59,-8.55,0,*51
1486702987.47,55947,10.13,73804.8,-7.89,-8.59,-8.55,0,*50
1486702988.66,55948,10.13,73810.0,-7.89,-8.55,-8.59,0,*5F
1486702989.85,55949,10.13,73812.0,-7.89,-8.59,-8.55,0,*5E
1486702991.04,55950,10.13,73806.0,-7.89,-8.59,-8.59,0,*5A
1486702992.27,55951,10.13,73810.8,-7.85,-8.63,-8.63,0,*57
1486702993.49,55952,10.13,73802.5,-7.85,-8.67,-8.63,0,*50
1486702994.7,55953,10.13,73802.3,-7.85,-8.67,-8.55,0,*54
1486702995.9,55954,10.13,73810.8,-7.89,-8.67,-8.59,0,*53
1486702997.09,55955,10.13,73810.0,-7.89,-8.59,-8.59,0,*5F
1486702998.28,55956,10.13,73808.3,-7.89,-8.67,-8.55,0,*5D
1486702999.53,55957,10.13,73810.5,-7.85,-8.55,-8.51,0,*55
1486703000.75,55958,10.13,73808.5,-7.85,-8.55,-8.55,0,*5E
1486703001.94,55959,10.13,73802.8,-7.89,-8.59,-8.55,0,*5F
1486703003.19,55960,10.13,73800.5,-7.85,-8.55,-8.51,0,*51
1486703004.44,55961,10.13,73802.3,-7.85,-8.55,-8.51,0,*50
1486703005.63,55962,10.13,73806.5,-7.89,-8.59,-8.55,0,*57
1486703006.83,55963,10.13,73808.3,-7.89,-8.59,-8.59,0,*5A
1486703008.08,55964,10.13,73806.8,-7.85,-8.55,-8.51,0,*55
1486703009.3,55965,10.13,73808.8,-7.85,-8.55,-8.55,0,*50
1486703010.52,55966,10.13,73812.3,-7.89,-8.63,-8.51,0,*5E
1486703011.78,55967,10.13,73808.8,-7.85,-8.55,-8.51,0,*56
1486703013.03,55968,10.13,73806.3,-7.85,-8.51,-8.41,0,*5C
1486703014.25,55969,10.13,73806.0,-7.85,-8.55,-8.41,0,*59
1486703015.47,55970,10.13,73806.3,-7.85,-8.55,-8.55,0,*54
1486703016.7,55971,10.13,73804.5,-7.85,-8.55,-8.55,0,*55
1486703017.94,55972,10.13,73810.8,-7.85,-8.51,-8.59,0,*5E
1486703019.16,55973,10.13,73804.5,-7.85,-8.55,-8.55,0,*57
1486703020.42,55974,10.13,73806.5,-7.85,-8.55,-8.51,0,*54
1486703021.64,55975,10.13,73804.0,-7.85,-8.55,-8.55,0,*51
1486703022.86,55976,10.13,73806.0,-7.85,-8.55,-8.55,0,*52
1486703024.11,55977,10.13,73808.5,-7.85,-8.51,-8.41,0,*52
1486703025.33,55978,10.13,73810.5,-7.85,-8.55,-8.55,0,*5C
1486703026.58,55979,10.13,73814.3,-7.85,-8.55,-8.51,0,*59
1486703027.84,55980,10.13,73808.0,-7.85,-8.55,-8.51,0,*5F
1486703029.06,55981,10.13,73806.5,-7.85,-8.55,-8.55,0,*5A
1486703030.31,55982,10.13,73808.5,-7.85,-8.55,-8.51,0,*5D
1486703031.56,55983,10.13,73808.8,-7.85,-8.51,-8.41,0,*59
1486703032.81,55984,10.13,73810.8,-7.85,-8.55,-8.51,0,*5B
1486703034.07,55985,10.13,73810.5,-7.83,-8.51,-8.51,0,*58
1486703035.3,55986,10.13,73812.5,-7.83,-8.55,-8.51,0,*5F
1486703036.56,55987,10.13,73812.3,-7.83,-8.51,-8.51,0,*5A
1486703037.82,55988,10.13,73810.5,-7.83,-8.51,-8.51,0,*55
1486703039.05,55989,10.13,73814.0,-7.83,-8.55,-8.51,0,*50
1486703040.3,55990,10.13,73810.0,-7.81,-8.59,-8.51,0,*56
1486703041.55,55991,10.13,73814.0,-7.81,-8.59,-8.51,0,*57
1486703042.75,55992,10.13,73812.8,-7.83,-8.67,-8.63,0,*5A
1486703043.98,55993,10.13,73808.5,-7.83,-8.67,-8.51,0,*5A
1486703045.18,55994,10.13,73810.0,-7.83,-8.67,-8.55,0,*59
1486703046.37,55995,10.13,73808.8,-7.83,-8.67,-8.63,0,*5D
1486703047.58,55996,10.13,73808.8,-7.83,-8.67,-8.63,0,*5E
1486703048.77,55997,10.13,73808.0,-7.83,-8.67,-8.67,0,*5B
1486703049.97,55998,10.13,73808.8,-7.83,-8.63,-8.63,0,*54
1486703051.2,55999,10.13,73814.0,-7.83,-8.67,-8.51,0,*50
1486703052.45,56000,10.13,73818.8,-7.81,-8.59,-8.51,0,*55
1486703053.68,56001,10.13,73816.8,-7.81,-8.59,-8.45,0,*51
1486703054.93,56002,10.13,73816.0,-7.81,-8.59,-8.51,0,*57
1486703056.15,56003,10.13,73810.0,-7.81,-8.63,-8.63,0,*5E
1486703057.35,56004,10.13,73808.5,-7.83,-8.67,-8.63,0,*5F
1486703058.55,56005,10.13,73808.5,-7.83,-8.67,-8.55,0,*5B
1486703059.75,56006,10.13,73814.8,-7.83,-8.67,-8.63,0,*5D
1486703060.97,56007,10.13,73814.8,-7.81,-8.59,-8.59,0,*5A
1486703062.22,56008,10.13,73810.5,-7.81,-8.63,-8.51,0,*54
1486703063.47,56009,10.13,73810.8,-7.81,-8.59,-8.51,0,*5C
1486703064.67,56010,10.13,73808.5,-7.83,-8.63,-8.55,0,*5B
1486703065.92,56011,10.13,73816.0,-7.81,-8.59,-8.51,0,*55
1486703067.17,56012,10.13,73808.5,-7.81,-8.59,-8.51,0,*56
1486703068.42,56013,10.13,73810.8,-7.81,-8.51,-8.55,0,*5B
1486703069.67,56014,10.13,73808.5,-7.81,-8.63,-8.51,0,*59
1486703070.92,56015,10.13,73812.3,-7.81,-8.59,-8.51,0,*51
1486703072.15,56016,10.13,73814.3,-7.83,-8.55,-8.51,0,*5C
1486703073.35,56017,10.13,73812.5,-7.83,-8.55,-8.55,0,*59
1486703074.6,56018,10.13,73800.8,-7.81,-8.59,-8.51,0,*5C
1486703075.85,56019,10.13,73806.0,-7.81,-8.59,-8.51,0,*5D
1486703077.08,56020,10.13,73810.5,-7.81,-8.63,-8.63,0,*5F
1486703078.3,56021,10.13,73808.3,-7.81,-8.63,-8.63,0,*5E
1486703079.52,56022,10.13,73812.8,-7.81,-8.63,-8.59,0,*54
1486703080.72,56023,10.13,73810.5,-7.83,-8.67,-8.63,0,*5A
1486703081.94,56024,10.13,73812.8,-7.81,-8.59,-8.59,0,*5B
1486703083.17,56025,10.13,73808.0,-7.81,-8.63,-8.63,0,*5A
1486703084.36,56026,10.13,73808.8,-7.83,-8.67,-8.67,0,*5B
1486703085.59,56027,10.13,73810.0,-7.81,-8.63,-8.59,0,*51
1486703086.81,56028,10.13,73810.3,-7.81,-8.63,-8.59,0,*5E
1486703088.01,56029,10.13,73802.8,-7.83,-8.67,-8.63,0,*50
1486703089.23,56030,10.13,73804.3,-7.81,-8.63,-8.59,0,*57
1486703090.45,56031,10.13,73800.3,-7.81,-8.67,-8.63,0,*5B
1486703091.68,56032,10.13,73802.5,-7.81,-8.63,-8.59,0,*55
1486703092.9,56033,10.13,73804.8,-7.81,-8.63,-8.63,0,*5D
1486703094.12,56034,10.13,73804.0,-7.81,-8.59,-8.59,0,*5A
1486703095.35,56035,10.13,73808.0,-7.81,-8.63,-8.59,0,*52
1486703096.54,56036,10.13,73802.3,-7.83,-8.67,-8.63,0,*5E
1486703097.74,56037,10.13,73806.8,-7.83,-8.67,-8.67,0,*5B
1486703098.96,56038,10.13,73806.0,-7.81,-8.59,-8.63,0,*5F
1486703100.18,56039,10.13,73808.5,-7.81,-8.59,-8.59,0,*57
1486703101.4,56040,10.13,73814.3,-7.81,-8.59,-8.59,0,*59
1486703102.62,56041,10.13,73796.8,-7.81,-8.59,-8.59,0,*58
1486703103.85,56042,10.13,73800.8,-7.79,-8.59,-8.51,0,*54
1486703105.1,56043,10.13,73810.3,-7.81,-8.51,-8.45,0,*5F
1486703106.32,56044,10.13,73816.5,-7.81,-8.59,-8.59,0,*5D
1486703107.55,56045,10.13,73822.5,-7.79,-8.59,-8.51,0,*53
1486703108.74,56046,10.13,73810.5,-7.79,-8.59,-8.45,0,*55
1486703109.97,56047,10.13,73804.5,-7.79,-8.59,-8.51,0,*51
1486703111.16,56048,10.13,73806.8,-7.79,-8.63,-8.59,0,*5F
1486703112.36,56049,10.13,73806.0,-7.79,-8.59,-8.63,0,*5E
1486703113.55,56050,10.13,73814.5,-7.79,-8.63,-8.63,0,*5F
1486703114.75,56051,10.13,73812.3,-7.79,-8.63,-8.59,0,*57
1486703115.95,56052,10.13,73814.8,-7.79,-8.63,-8.63,0,*5D
1486703117.14,56053,10.13,73810.3,-7.79,-8.67,-8.63,0,*58
1486703118.33,56054,10.13,73812.3,-7.79,-8.63,-8.59,0,*52
1486703119.59,56055,10.13,73808.8,-7.81,-8.63,-8.51,0,*5C
1486703120.78,56056,10.13,73810.5,-7.79,-8.63,-8.63,0,*59
1486703121.98,56057,10.13,73804.3,-7.79,-8.63,-8.63,0,*58
1486703123.17,56058,10.13,73802.5,-7.79,-8.67,-8.63,0,*53
1486703124.37,56059,10.13,73804.3,-7.79,-8.67,-8.63,0,*52
1486703125.56,56060,10.13,73810.5,-7.79,-8.67,-8.63,0,*58
1486703126.75,56061,10.13,73812.3,-7.79,-8.67,-8.63,0,*59
1486703127.95,56062,10.13,73816.3,-7.79,-8.67,-8.59,0,*53
1486703129.14,56063,10.13,73816.3,-7.79,-8.67,-8.63,0,*5B
1486703130.34,56064,10.13,73818.8,-7.79,-8.63,-8.59,0,*51
1486703131.53,56065,10.13,73822.3,-7.79,-8.63,-8.59,0,*50
1486703132.72,56066,10.13,73818.5,-7.79,-8.59,-8.63,0,*53
1486703133.94,56067,10.13,73816.0,-7.77,-8.59,-8.55,0,*59
1486703135.16,56068,10.13,73820.0,-7.77,-8.59,-8.59,0,*5A
1486703136.35,56069,10.13,73814.5,-7.79,-8.63,-8.59,0,*5C
1486703137.55,56070,10.13,73812.5,-7.79,-8.63,-8.59,0,*54
1486703138.74,56071,10.13,73808.0,-7.79,-8.63,-8.63,0,*5C
1486703139.94,56072,10.13,73810.3,-7.79,-8.63,-8.63,0,*5F
1486703141.14,56073,10.13,73810.5,-7.79,-8.63,-8.63,0,*5E
1486703142.33,56074,10.13,73814.8,-7.79,-8.63,-8.63,0,*59
1486703143.53,56075,10.13,73818.0,-7.79,-8.63,-8.63,0,*58
1486703144.73,56076,10.13,73818.0,-7.79,-8.63,-8.63,0,*5B
1486703145.92,56077,10.13,73820.5,-7.79,-8.63,-8.59,0,*53
1486703147.14,56078,10.13,73818.8,-7.77,-8.55,-8.55,0,*5B
1486703148.35,56079,10.13,73818.8,-7.77,-8.59,-8.55,0,*56
1486703149.57,56080,10.13,73816.0,-7.77,-8.59,-8.55,0,*50
1486703150.76,56081,10.13,73808.0,-7.79,-8.59,-8.59,0,*53
1486703151.98,56082,10.13,73806.0,-7.79,-8.59,-8.51,0,*58
1486703153.18,56083,10.13,73808.3,-7.79,-8.59,-8.59,0,*51
1486703154.37,56084,10.13,73806.8,-7.79,-8.63,-8.59,0,*5F
1486703155.6,56085,10.13,73804.5,-7.79,-8.59,-8.51,0,*5F
1486703156.82,56086,10.13,73808.5,-7.77,-8.55,-8.45,0,*5B
1486703158.04,56087,10.13,73810.3,-7.77,-8.55,-8.55,0,*5B
1486703159.25,56088,10.13,73808.8,-7.77,-8.59,-8.55,0,*58
1486703160.47,56089,10.13,73810.3,-7.77,-8.59,-8.59,0,*55
1486703161.69,56090,10.13,73814.0,-7.77,-8.55,-8.59,0,*51
1486703162.92,56091,10.13,73808.8,-7.77,-8.55,-8.45,0,*5D
1486703164.12,56092,10.13,73812.5,-7.79,-8.63,-8.45,0,*55
1486703165.35,56093,10.13,73818.5,-7.77,-8.55,-8.45,0,*5F
1486703166.56,56094,10.13,73820.3,-7.77,-8.59,-8.55,0,*55
1486703167.78,56095,10.13,73812.0,-7.77,-8.59,-8.45,0,*55
1486703169.01,56096,10.13,73810.8,-7.77,-8.55,-8.45,0,*5A
1486703170.23,56097,10.13,73816.0,-7.79,-8.63,-8.51,0,*55
1486703171.45,56098,10.13,73816.3,-7.77,-8.55,-8.59,0,*59
1486703172.66,56099,10.13,73810.5,-7.79,-8.55,-8.45,0,*5B
1486703173.87,56100,10.13,73804.0,-7.77,-8.55,-8.55,0,*55
1486703175.09,56101,10.13,73810.0,-7.77,-8.59,-8.59,0,*54
1486703176.3,56102,10.13,73808.8,-7.77,-8.59,-8.55,0,*5B
1486703177.52,56103,10.13,73802.8,-7.77,-8.59,-8.59,0,*56
1486703178.72,56104,10.13,73800.3,-7.79,-8.63,-8.63,0,*5F
1486703179.93,56105,10.13,73806.8,-7.77,-8.59,-8.59,0,*50
1486703181.15,56106,10.13,73804.3,-7.77,-8.59,-8.59,0,*53
1486703182.37,56107,10.13,73800.8,-7.77,-8.59,-8.55,0,*5E
1486703183.58,56108,10.13,73796.3,-7.77,-8.59,-8.59,0,*5D
1486703184.78,56109,10.13,73792.5,-7.79,-8.63,-8.63,0,*52
1486703185.99,56110,10.13,73792.3,-7.77,-8.59,-8.55,0,*58
1486703187.21,56111,10.13,73788.8,-7.77,-8.59,-8.59,0,*55
1486703188.43,56112,10.13,73792.8,-7.77,-8.59,-8.59,0,*56
1486703189.62,56113,10.13,73800.8,-7.79,-8.63,-8.59,0,*50
1486703190.84,56114,10.13,73802.3,-7.77,-8.59,-8.59,0,*50
1486703192.05,56115,10.13,73800.8,-7.77,-8.59,-8.55,0,*5D
1486703193.25,56116,10.13,73806.3,-7.79,-8.63,-8.63,0,*5C
1486703194.46,56117,10.13,73804.8,-7.77,-8.59,-8.55,0,*5F
1486703195.68,56118,10.13,73802.8,-7.77,-8.55,-8.55,0,*5C
1486703196.88,56119,10.13,73800.3,-7.79,-8.63,-8.63,0,*53
1486703198.07,56120,10.13,73800.0,-7.79,-8.67,-8.59,0,*54
1486703199.29,56121,10.13,73796.8,-7.77,-8.63,-8.59,0,*5F
1486703200.51,56122,10.13,73802.3,-7.77,-8.63,-8.55,0,*50
1486703201.73,56123,10.13,73804.0,-7.77,-8.63,-8.59,0,*5D
1486703202.92,56124,10.13,73798.0,-7.79,-8.63,-8.59,0,*54
1486703204.14,56125,10.13,73800.8,-7.77,-8.63,-8.59,0,*5B
1486703205.36,56126,10.13,73810.5,-7.77,-8.63,-8.59,0,*58
1486703206.58,56127,10.13,73806.0,-7.77,-8.63,-8.55,0,*55
1486703207.79,56128,10.13,73806.8,-7.77,-8.59,-8.59,0,*5F
1486703209.01,56129,10.13,73806.3,-7.77,-8.59,-8.55,0,*52
1486703210.2,56130,10.13,73812.0,-7.79,-8.63,-8.59,0,*51
1486703211.43,56131,10.13,73804.8,-7.79,-8.59,-8.51,0,*51
1486703212.65,56132,10.13,73802.8,-7.77,-8.55,-8.55,0,*54
1486703213.86,56133,10.13,73806.5,-7.77,-8.59,-8.59,0,*55
1486703215.08,56134,10.13,73810.8,-7.77,-8.59,-8.55,0,*5E
1486703216.3,56135,10.13,73818.8,-7.77,-8.55,-8.59,0,*5F
1486703217.51,56136,10.13,73812.3,-7.77,-8.59,-8.55,0,*5C
1486703218.73,56137,10.13,73808.5,-7.77,-8.59,-8.59,0,*51
1486703219.94,56138,10.13,73808.8,-7.77,-8.59,-8.55,0,*52
1486703221.16,56139,10.13,73804.3,-7.77,-8.59,-8.55,0,*53
1486703222.37,56140,10.13,73806.0,-7.77,-8.63,-8.59,0,*58
1486703223.6,56141,10.13,73810.0,-7.77,-8.71,-8.59,0,*5A
1486703224.82,56142,10.13,73806.0,-7.77,-8.71,-8.71,0,*53
1486703226.05,56143,10.13,73808.0,-7.77,-8.71,-8.63,0,*51
1486703227.27,56144,10.13,73806.0,-7.77,-8.71,-8.71,0,*55
1486703228.49,56145,10.13,73802.8,-7.77,-8.71,-8.63,0,*57
1486703229.71,56146,10.13,73806.0,-7.77,-8.63,-8.63,0,*57
1486703230.94,56147,10.13,73800.8,-7.77,-8.71,-8.71,0,*56
1486703232.16,56148,10.13,73806.0,-7.77,-8.71,-8.63,0,*5A
1486703233.38,56149,10.13,73800.5,-7.77,-8.85,-8.71,0,*53
1486703234.61,56150,10.13,73810.0,-7.77,-8.71,-8.63,0,*53
1486703235.83,56151,10.13,73818.5,-7.77,-8.71,-8.63,0,*52
1486703237.05,56152,10.13,73820.0,-7.77,-8.71,-8.63,0,*51
1486703238.27,56153,10.13,73816.3,-7.77,-8.63,-8.63,0,*53
1486703239.49,56154,10.13,73816.8,-7.77,-8.63,-8.63,0,*54
1486703240.71,56155,10.13,73818.3,-7.77,-8.63,-8.55,0,*50
1486703241.93,56156,10.13,73812.3,-7.77,-8.71,-8.59,0,*5C
1486703243.15,56157,10.13,73812.8,-7.77,-8.63,-8.59,0,*5E
1486703244.37,56158,10.13,73810.5,-7.77,-8.63,-8.59,0,*51
1486703245.6,56159,10.13,73808.5,-7.77,-8.71,-8.59,0,*53
1486703246.82,56160,10.13,73806.0,-7.77,-8.63,-8.71,0,*50
1486703248.03,56161,10.13,73808.5,-7.77,-8.75,-8.63,0,*55
1486703249.25,56162,10.13,73818.5,-7.77,-8.63,-8.59,0,*58
1486703250.48,56163,10.13,73810.5,-7.77,-8.71,-8.59,0,*5A
1486703251.68,56164,10.13,73816.3,-7.79,-8.71,-8.59,0,*53
1486703252.87,56165,10.13,73808.5,-7.79,-8.63,-8.63,0,*58
1486703254.07,56166,10.13,73808.5,-7.75,-8.63,-8.63,0,*57
1486703255.29,56167,10.13,73806.8,-7.77,-8.71,-8.63,0,*57
1486703256.51,56168,10.13,73806.0,-7.77,-8.63,-8.63,0,*5B
1486703257.73,56169,10.13,73814.0,-7.77,-8.63,-8.59,0,*53
1486703258.95,56170,10.13,73818.0,-7.77,-8.63,-8.59,0,*5B
1486703260.17,56171,10.13,73812.8,-7.77,-8.63,-8.59,0,*5A
1486703261.39,56172,10.13,73808.5,-7.77,-8.71,-8.59,0,*5A
1486703262.61,56173,10.13,73806.0,-7.77,-8.63,-8.63,0,*51
1486703263.83,56174,10.13,73810.5,-7.77,-8.63,-8.63,0,*56
1486703265.02,56175,10.13,73808.8,-7.79,-8.67,-8.67,0,*59
1486703266.24,56176,10.13,73812.8,-7.77,-8.71,-8.63,0,*57
1486703267.47,56177,10.13,73808.5,-7.77,-8.71,-8.63,0,*56
1486703268.69,56178,10.13,73804.8,-7.77,-8.71,-8.71,0,*5A
1486703269.89,56179,10.13,73802.8,-7.75,-8.75,-8.63,0,*5E
1486703271.08,56180,10.13,73800.5,-7.75,-8.63,-8.63,0,*5F
1486703272.28,56181,10.13,73802.3,-7.75,-8.71,-8.63,0,*5D
1486703273.48,56182,10.13,73802.3,-7.75,-8.71,-8.71,0,*5D
1486703274.68,56183,10.13,73806.5,-7.75,-8.63,-8.71,0,*5F
1486703275.91,56184,10.13,73798.8,-7.77,-8.71,-8.63,0,*5A
1486703277.1,56185,10.13,73802.3,-7.79,-8.75,-8.67,0,*55
1486703278.29,56186,10.13,73806.0,-7.79,-8.67,-8.63,0,*51
1486703279.51,56187,10.13,73808.0,-7.77,-8.63,-8.59,0,*53
1486703280.71,56188,10.13,73812.8,-7.75,-8.71,-8.59,0,*5D
1486703281.91,56189,10.13,73810.8,-7.75,-8.63,-8.59,0,*5F
1486703283.12,56190,10.13,73814.8,-7.77,-8.63,-8.59,0,*55
1486703284.34,56191,10.13,73808.0,-7.77,-8.63,-8.59,0,*54
1486703285.56,56192,10.13,73808.8,-7.77,-8.63,-8.59,0,*57
1486703286.76,56193,10.13,73804.3,-7.75,-8.63,-8.59,0,*54
1486703287.96,56194,10.13,73798.8,-7.75,-8.63,-8.59,0,*53
1486703289.16,56195,10.13,73802.5,-7.75,-8.71,-8.59,0,*51
1486703290.36,56196,10.13,73800.8,-7.75,-8.71,-8.59,0,*52
1486703291.55,56197,10.13,73798.8,-7.75,-8.59,-8.59,0,*59
1486703292.74,56198,10.13,73796.5,-7.75,-8.59,-8.55,0,*5A
1486703293.94,56199,10.13,73798.5,-7.75,-8.59,-8.59,0,*57
1486703295.13,56200,10.13,73804.3,-7.75,-8.59,-8.59,0,*54
1486703296.32,56201,10.13,73806.0,-7.75,-8.59,-8.59,0,*55
1486703297.52,56202,10.13,73810.0,-7.75,-8.59,-8.59,0,*56
1486703298.71,56203,10.13,73806.5,-7.75,-8.63,-8.59,0,*5E
1486703299.91,56204,10.13,73802.8,-7.75,-8.63,-8.59,0,*59
1486703301.11,56205,10.13,73802.0,-7.75,-8.63,-8.63,0,*51
1486703302.3,56206,10.13,73800.0,-7.75,-8.63,-8.63,0,*52